Temperature
16 16 16 17 16 16 16 17 17 16 16 15 15 15 15 15 15 15 15 15 14 14 14 14 14 13 13 13 13 13 13 12 12 12 12 12 12 11
16 16 16 16 16 16 16 16 16 16 15 15 15 15 15 14 14 14 14 14 14 14 13 13 13 13 13 13 12 12 12 12 11 11 11 11 11 11
16 16 16 16 16 16 16 16 16 15 15 15 14 14 14 14 14 13 13 13 13 13 12 12 12 12 12 12 11 11 11 11 10 10 10 10 10 9
16 16 16 16 16 16 15 15 15 15 15 14 14 13 13 13 13 13 12 12 12 12 12 11 11 11 11 11 10 10 10 10 9 9 9 9 8 8
16 15 15 15 15 15 15 15 15 14 14 14 14 13 13 12 12 12 11 11 11 11 11 10 10 10 10 10 9 9 9 9 9 8 8 8 8 8
15 15 15 15 15 15 14 14 14 14 14 14 13 12 12 12 11 11 11 10 10 10 10 10 9 9 9 9 8 8 8 8 8 7 7 7 7 7
15 15 14 14 14 14 14 14 14 14 13 13 13 12 11 11 11 11 10 10 9 9 9 8 8 8 8 8 8 8 7 7 7 7 7 6 6 6
14 14 14 14 14 14 14 14 13 13 13 12 12 12 11 11 10 10 10 9 9 8 8 8 8 7 7 7 7 7 7 6 6 6 6 6 6 6
14 14 13 13 13 13 13 13 13 12 12 12 11 11 11 10 10 9 9 9 8 8 8 7 7 7 7 6 6 6 6 6 6 6 5 5 5 5
13 13 13 13 13 12 12 12 12 12 11 11 11 10 10 10 9 9 9 8 8 7 7 8 7 7 7 6 6 6 6 5 5 5 5 5 5 5
12 12 12 12 12 12 12 11 11 11 11 10 10 10 10 9 9 9 8 9 8 7 7 7 7 7 6 6 6 5 5 5 5 5 5 5 5 5
12 12 11 11 11 11 11 11 10 10 10 9 9 9 9 8 8 8 8 8 8 8 6 6 7 7 7 6 6 5 5 5 5 5 5 4 4 4
11 11 11 11 11 10 10 10 10 9 9 9 8 8 8 8 7 7 7 7 7 7 6 6 6 6 7 6 6 6 5 5 5 5 5 4 4 4
11 10 10 10 10 10 10 9 9 9 8 8 8 8 7 7 7 6 6 6 6 6 6 6 6 6 6 6 6 6 5 5 5 5 4 4 4 4
10 10 9 9 9 9 9 8 8 8 8 8 7 7 6 6 6 6 6 6 6 5 5 5 5 5 6 6 6 6 5 5 5 4 4 4 4 4
9 9 8 8 8 8 8 7 7 7 7 7 7 6 6 6 6 6 6 6 6 5 5 5 4 5 5 5 6 6 5 5 5 5 4 4 4 4
9 8 8 7 7 7 7 7 7 7 7 6 6 6 6 6 6 6 5 6 6 6 6 5 5 5 5 5 5 5 5 5 5 4 4 4 5 4
8 8 8 7 7 7 7 7 6 6 6 6 6 6 6 6 6 5 5 6 6 6 5 5 5 5 5 5 5 5 5 5 5 4 4 5 5 5
8 7 7 7 7 7 7 7 6 6 6 6 6 6 6 5 6 5 5 5 6 5 5 5 5 5 6 6 5 5 4 4 4 4 4 4 4 4
7 7 7 7 7 7 7 6 6 6 6 6 5 5 5 5 5 5 5 5 5 5 5 5 5 5 5 5 5 5 5 4 4 4 4 4 4 4
7 7 7 7 6 6 6 6 6 6 5 5 5 5 5 5 5 5 5 5 5 5 5 5 5 4 4 4 5 5 5 4 4 4 4 4 4 4
7 7 6 6 6 6 5 5 5 5 5 5 5 5 5 5 5 5 5 5 5 5 5 5 4 4 5 5 5 5 5 5 4 4 4 4 4 4
6 6 6 6 6 5 5 5 5 5 5 5 5 5 5 5 5 5 5 5 5 5 5 5 5 5 5 5 5 5 5 5 5 5 5 5 4 4
Wind_Speed
7 7 7 6 6 6 5 5 5 5 3 3 2 2 3 4 7 7 8 11 11 11 11 11 12 13 13 13 13 13 12 11 11 11 10 10 9 8
5 5 5 5 5 5 5 5 4 4 3 1 2 3 4 6 9 10 12 15 14 13 14 14 14 14 13 13 13 13 12 11 11 11 10 9 9 9
5 5 5 5 4 4 4 4 4 4 3 2 2 3 4 5 8 9 10 10 13 15 15 15 15 14 13 13 13 12 12 11 10 9 9 8 8 7
4 4 4 3 4 4 4 4 4 4 4 5 4 4 4 5 7 7 8 10 12 15 16 15 15 14 14 13 13 12 11 10 9 8 8 7 6 6
3 3 3 3 3 3 3 3 3 4 4 5 5 4 4 5 6 7 8 8 10 13 14 14 14 14 14 13 12 11 10 9 9 8 7 6 6 5
1 1 2 2 2 3 3 3 3 4 5 6 6 6 5 5 5 6 6 6 6 8 9 10 12 13 12 12 11 10 10 9 8 7 6 6 5 5
2 2 2 3 4 2 1 3 4 4 5 6 6 6 5 5 5 4 6 6 5 4 4 6 7 7 8 9 8 8 7 7 6 6 5 5 6 6
3 4 4 5 7 9 9 8 5 4 5 5 5 6 6 5 5 5 5 5 4 3 3 3 4 4 5 6 7 7 6 5 5 5 5 5 6 6
4 4 4 5 6 7 9 11 11 11 7 4 6 6 6 6 6 6 5 4 4 4 3 3 2 3 4 7 8 6 5 4 4 4 5 5 6 7
5 5 6 6 5 6 9 9 9 8 7 6 6 5 5 5 5 6 7 6 5 4 1 1 2 1 3 5 7 5 4 3 3 3 4 5 7 9
6 6 6 7 7 8 10 10 10 9 13 14 12 11 10 8 5 5 6 5 4 4 1 1 1 1 1 2 5 6 5 3 1 1 3 5 8 10
7 7 9 8 7 7 9 10 10 8 9 10 10 10 10 9 7 3 3 4 3 3 2 1 1 0 0 1 0 1 3 5 5 5 3 3 7 9
7 6 7 9 9 8 7 8 8 8 8 9 8 7 7 6 6 6 5 3 3 3 2 0 0 0 1 0 0 1 2 2 2 3 4 4 4 7
7 7 8 11 11 10 9 9 6 5 7 7 7 7 7 7 7 8 8 7 6 5 3 1 1 1 2 1 1 1 2 3 3 4 5 4 6 7
9 12 12 12 12 11 10 6 5 6 7 7 7 7 7 7 7 6 7 6 6 5 4 2 2 1 2 2 2 2 3 3 3 5 6 7 7 6
11 13 12 10 9 9 8 5 5 6 6 7 7 7 6 6 5 4 4 3 4 4 4 2 1 2 3 3 3 3 3 4 4 5 7 7 7 7
10 9 8 7 7 7 6 6 6 6 6 6 6 6 6 5 4 4 2 2 2 2 2 1 0 2 3 4 3 3 4 4 4 5 7 7 6 7
8 8 8 7 6 6 6 6 5 5 5 5 5 5 5 4 4 3 2 2 2 2 2 1 1 2 2 2 1 4 4 5 6 6 7 8 7 7
6 7 7 7 6 6 6 6 6 5 5 5 5 4 4 3 3 3 2 1 1 1 1 1 2 3 4 3 1 2 5 6 7 7 7 8 8 8
6 6 6 6 6 6 5 5 6 6 5 4 4 4 3 3 2 2 1 1 0 1 1 1 2 3 5 5 5 5 4 5 7 8 8 9 8 9
6 6 6 6 5 5 5 5 5 5 4 4 4 3 3 2 2 2 2 2 3 2 2 2 2 3 6 5 6 5 4 4 6 7 9 9 9 9
6 6 5 5 5 5 4 4 4 4 5 4 3 3 2 2 2 2 2 2 2 2 3 2 2 4 5 6 7 7 6 6 8 13 14 11 8 10
6 6 6 6 5 5 5 5 5 4 4 3 3 3 3 3 3 2 3 3 3 3 4 4 4 4 6 6 7 8 9 9 8 8 7 10 16 19
Wind_Direction
239 236 240 246 247 252 255 250 250 247 224 167 143 78 91 93 93 100 98 100 104 104 104 104 104 104 103 100 98 95 91 87 83 80 75 68 63 58
244 248 245 251 246 246 249 253 252 243 234 160 119 105 97 103 94 97 96 97 95 98 99 99 99 98 99 100 100 97 93 91 87 82 76 70 64 58
238 237 239 250 248 246 239 236 228 216 201 183 128 110 105 104 101 104 104 100 94 94 95 95 95 95 96 97 96 93 91 88 83 77 71 65 58 50
229 228 235 233 233 245 237 227 217 198 189 177 156 139 121 119 112 109 106 101 99 95 96 95 94 95 94 93 91 91 89 85 80 73 65 55 45 35
214 217 228 223 228 228 224 220 214 193 173 167 156 137 126 125 119 109 98 96 100 103 100 98 97 97 93 92 93 91 89 85 79 71 62 51 36 20
180 203 225 213 217 214 209 200 182 169 159 156 150 146 137 134 136 126 114 100 96 101 102 105 105 102 99 96 95 91 87 79 71 62 53 43 29 13
123 107 90 87 71 69 138 160 164 166 160 157 154 149 145 149 146 139 129 121 100 103 115 116 116 107 106 101 92 82 77 69 60 50 41 30 20 9
121 103 98 93 91 84 78 76 87 144 161 157 153 151 146 144 139 142 141 141 129 123 123 107 106 102 101 92 87 85 76 66 54 44 35 26 14 2
118 112 102 98 104 105 95 87 76 73 83 124 139 145 147 151 152 152 146 134 118 134 140 107 98 95 100 93 96 87 80 70 54 42 30 16 2 349
108 113 113 107 104 112 108 97 85 75 80 95 114 121 128 139 150 147 138 129 116 111 136 107 117 104 100 110 123 116 103 78 55 34 11 355 343 329
91 93 104 107 100 110 115 111 105 95 84 89 93 98 98 98 111 140 149 146 126 108 77 82 110 117 132 142 146 162 172 171 201 290 324 331 329 316
94 89 83 89 94 105 122 122 118 115 114 110 108 112 111 108 103 112 142 146 128 114 87 31 87 21 185 135 222 194 203 196 209 220 243 296 322 326
113 105 94 89 87 79 94 111 118 124 123 121 120 118 114 108 99 84 63 62 84 86 92 27 41 316 304 313 299 326 318 325 302 283 235 229 285 308
114 111 105 99 89 81 90 97 112 130 119 116 112 109 105 98 89 82 74 70 62 75 84 15 8 330 301 306 330 322 306 309 315 321 323 294 268 250
104 102 110 112 108 97 95 103 129 120 117 115 109 102 98 98 106 109 106 105 98 87 84 37 358 328 303 318 324 315 309 309 313 319 320 316 313 307
113 115 113 107 104 106 119 117 103 97 107 110 110 111 115 119 114 108 109 111 105 102 95 80 27 314 305 319 304 307 318 318 315 322 323 311 306 309
132 132 131 129 124 122 117 111 113 117 113 115 121 123 122 119 112 105 96 99 93 86 91 86 1 275 279 290 300 319 320 318 324 331 308 305 309 311
143 137 136 134 132 130 129 128 127 124 124 125 125 123 123 123 121 122 119 96 88 80 60 33 342 293 249 188 285 315 317 322 322 316 304 309 311 314
145 135 136 137 136 136 137 135 130 123 127 133 132 132 134 136 136 133 126 116 88 56 33 356 329 319 312 325 188 242 313 316 312 312 311 311 309 313
144 138 141 143 142 140 140 136 133 137 143 142 143 147 150 152 153 155 141 89 354 307 301 319 340 334 326 323 316 299 246 298 316 314 312 310 308 304
147 143 143 144 141 140 139 140 143 144 143 153 151 155 163 174 175 184 168 162 255 271 295 326 12 286 283 291 294 306 311 247 266 287 302 306 312 314
153 152 147 145 145 147 151 156 158 158 164 178 164 171 180 194 195 214 229 232 251 282 298 308 292 277 285 296 303 307 308 307 274 248 250 263 299 312
164 161 159 163 161 165 167 173 181 180 184 186 179 190 200 207 222 229 231 249 263 277 285 293 296 292 295 297 300 304 308 308 306 303 286 241 237 249
Height
1563 1564 1565 1566 1566 1567 1568 1569 1570 1570 1571 1571 1572 1573 1574 1574 1574 1575 1575 1575 1576 1577 1577 1577 1577 1577 1577 1577 1578 1577 1577 1577 1577 1576 1576 1575 1574 1574
1559 1560 1561 1562 1563 1564 1564 1565 1566 1567 1567 1568 1569 1570 1571 1572 1572 1572 1572 1573 1574 1574 1575 1575 1575 1575 1575 1575 1575 1574 1574 1574 1574 1573 1573 1572 1571 1570
1555 1556 1557 1558 1559 1559 1560 1561 1562 1563 1564 1564 1565 1566 1568 1569 1569 1570 1571 1571 1571 1572 1572 1573 1573 1573 1573 1573 1572 1572 1572 1571 1571 1570 1570 1569 1569 1568
1552 1553 1553 1554 1554 1555 1556 1556 1557 1559 1560 1561 1562 1563 1565 1566 1567 1568 1569 1570 1570 1570 1570 1571 1571 1571 1571 1571 1570 1570 1570 1569 1569 1568 1567 1567 1566 1565
1548 1549 1550 1550 1550 1551 1552 1553 1554 1555 1557 1558 1559 1561 1562 1564 1565 1566 1567 1568 1568 1568 1569 1569 1569 1569 1569 1569 1569 1568 1568 1568 1567 1566 1565 1565 1564 1563
1545 1546 1546 1547 1547 1548 1548 1549 1550 1552 1554 1555 1556 1558 1560 1561 1563 1564 1565 1566 1567 1568 1568 1568 1568 1568 1568 1568 1567 1567 1566 1566 1565 1564 1563 1562 1561 1560
1542 1543 1543 1544 1544 1545 1546 1546 1548 1550 1551 1552 1554 1556 1558 1559 1561 1562 1563 1564 1565 1567 1567 1568 1568 1568 1568 1567 1566 1566 1565 1564 1563 1563 1561 1560 1559 1558
1540 1540 1541 1541 1542 1543 1543 1544 1546 1547 1548 1550 1551 1553 1555 1557 1559 1560 1562 1563 1564 1566 1566 1567 1567 1568 1567 1567 1565 1565 1564 1563 1562 1561 1560 1559 1557 1556
1538 1538 1539 1539 1540 1541 1542 1542 1543 1544 1546 1548 1549 1551 1553 1554 1556 1558 1560 1562 1562 1564 1565 1566 1566 1567 1566 1565 1564 1564 1563 1562 1561 1560 1558 1557 1555 1554
1536 1537 1537 1538 1538 1540 1540 1541 1542 1543 1544 1546 1548 1550 1552 1554 1555 1557 1559 1560 1562 1562 1564 1566 1566 1566 1566 1565 1564 1563 1562 1561 1560 1558 1557 1555 1553 1551
1536 1536 1537 1537 1538 1539 1539 1540 1541 1542 1544 1546 1547 1549 1551 1553 1555 1557 1559 1560 1561 1562 1563 1564 1564 1565 1565 1565 1563 1562 1561 1560 1559 1557 1555 1554 1552 1550
1535 1536 1536 1537 1538 1538 1539 1540 1540 1542 1544 1546 1547 1549 1551 1553 1554 1556 1558 1560 1560 1561 1561 1562 1563 1564 1564 1564 1563 1562 1561 1559 1557 1556 1554 1553 1550 1549
1535 1536 1537 1538 1538 1539 1540 1541 1541 1543 1545 1547 1548 1550 1551 1553 1554 1555 1557 1558 1559 1560 1561 1561 1562 1563 1563 1563 1563 1562 1561 1559 1558 1556 1554 1551 1549 1547
1536 1537 1537 1539 1539 1540 1541 1542 1543 1545 1547 1548 1550 1551 1552 1553 1554 1555 1556 1557 1558 1559 1559 1560 1561 1561 1562 1562 1561 1561 1559 1558 1557 1555 1554 1551 1549 1546
1536 1537 1538 1540 1541 1542 1543 1543 1545 1547 1548 1549 1550 1552 1552 1553 1555 1555 1557 1557 1558 1559 1559 1559 1560 1560 1561 1561 1560 1559 1558 1557 1556 1554 1552 1550 1548 1546
1536 1538 1539 1541 1542 1543 1544 1546 1547 1548 1550 1551 1552 1553 1554 1555 1557 1558 1559 1560 1561 1561 1560 1559 1559 1559 1560 1559 1559 1558 1557 1556 1554 1552 1550 1548 1547 1545
1537 1539 1541 1542 1544 1545 1546 1547 1548 1550 1551 1552 1553 1555 1556 1557 1558 1559 1560 1561 1561 1561 1561 1560 1560 1559 1558 1558 1558 1557 1556 1554 1553 1550 1548 1546 1544 1543
1538 1540 1541 1543 1545 1546 1547 1548 1550 1551 1552 1554 1555 1556 1557 1558 1559 1560 1560 1561 1561 1561 1561 1561 1560 1559 1559 1557 1557 1556 1554 1553 1551 1548 1546 1544 1542 1540
1539 1540 1542 1543 1545 1547 1548 1549 1551 1552 1553 1554 1556 1557 1558 1559 1560 1560 1561 1561 1561 1561 1561 1560 1560 1559 1558 1556 1555 1554 1552 1550 1549 1547 1545 1542 1539 1537
1540 1541 1542 1544 1545 1547 1548 1550 1551 1552 1553 1555 1556 1557 1558 1559 1560 1560 1560 1560 1561 1561 1560 1560 1559 1558 1557 1556 1554 1552 1550 1549 1547 1545 1542 1539 1537 1534
1540 1541 1543 1544 1545 1547 1548 1550 1551 1552 1553 1555 1556 1557 1558 1559 1559 1560 1560 1559 1560 1560 1559 1559 1557 1556 1555 1554 1553 1551 1549 1547 1544 1542 1539 1537 1534 1531
1540 1541 1543 1544 1545 1547 1548 1549 1551 1552 1552 1554 1555 1556 1557 1558 1558 1559 1559 1559 1559 1559 1558 1558 1556 1555 1554 1553 1551 1549 1547 1545 1542 1538 1536 1534 1532 1528
1540 1541 1542 1544 1545 1546 1547 1549 1550 1551 1552 1553 1554 1555 1556 1557 1557 1558 1558 1558 1558 1557 1557 1556 1555 1554 1553 1551 1549 1547 1544 1542 1539 1537 1534 1531 1528 1524